Regional Weather Roundup
Issued by NWS

Home | Current Version | Previous Version | Text Only | Print | Product List | Glossary Off
Versions: 1 2 3 4 5 6 7 8 9 10 11 12 13 14 15 16 17 18 19 20 21 22 23 24 25 26 27 28 29 30 31 32 33 34 35 36 37 38 39 40 41 42 43 44 45 46 47 48 49 50

000
ASUS43 KMPX 232010
RWRMN
WEATHER ROUNDUP FOR MINNESOTA
NATIONAL WEATHER SERVICE TWIN CITIES/CHANHASSEN MN
300 PM CDT TUE AUG 23 2016


NOTE: "FAIR" INDICATES FEW OR NO CLOUDS BELOW 12,000 FEET WITH NO
SIGNIFICANT WEATHER AND/OR OBSTRUCTIONS TO VISIBILITY. N/A MEANS
CURRENT SKY AND/OR WEATHER CONDITIONS ARE NOT AVAILABLE.

MNZ060>063-068>070-232100-
   Twin Cities Metro

CITY           SKY/WX    TMP DP  RH WIND       PRES   REMARKS
TWIN CITIES    PTSUNNY   83  69  62 S15G21    29.90F
ST PAUL        CLOUDY    81  70  69 S16       29.91S
CRYSTAL        CLOUDY    83  68  60 S15       29.88F
BLAINE         PTSUNNY   84  70  61 S15G24    29.90S
LAKEVILLE      PTSUNNY   81  70  69 S14G22    29.92S
EDEN PRAIRIE   CLOUDY    84  71  65 S14       29.89F
LAKEVILLE      PTSUNNY   81  70  69 S14G22    29.92S
SOUTH ST PAUL  CLOUDY    82  69  63 S12G17    29.91F
LAKE ELMO      FAIR      81  70  69 S13       29.93S
$$
MNZ001>005-007-008-013>017-022>024-027-028-232100-
   Northwest Minnesota

CITY           SKY/WX    TMP DP  RH WIND       PRES   REMARKS
BEMIDJI        SUNNY     84  68  57 S16G25    29.77R
HALLOCK        CLOUDY    82  66  57 S16       29.64R
ROSEAU         CLOUDY    84  70  61 S13       29.68S
WARROAD        MOSUNNY   81  70  69 SE12G17   29.69F
THIEF RVR FALL MOSUNNY   86  68  54 S15G21    29.70R
CROOKSTON      MOSUNNY   88  66  48 S24G33    29.69R HX  90
FOSSTON        SUNNY     84  64  51 S18G28    29.73S
DETROIT LAKES  SUNNY     82  66  57 SW23G29   29.78R
MOORHEAD       SUNNY     86  66  51 S20G29    29.71R
PARK RAPIDS    SUNNY     87  68  52 S16       29.79S HX  90
MAHNOMEN       FAIR      83  68  59 S18G25    29.74R
$$
MNZ006-009>011-018-025>026-232100-
   North Central Minnesota

CITY           SKY/WX    TMP DP  RH WIND       PRES   REMARKS
BAUDETTE       PTSUNNY   79  66  64 SE15G23   29.70F
FLAG ISLAND    CLOUDY    79  68  69 S5        29.68S
INTL FALLS     PTSUNNY   80  66  62 SE13G20   29.76F
WASKISH        MOSUNNY   84  70  61 S8        29.73S
BIG FORK       SUNNY     84  68  58 S13G20    29.80R
LONGVILLE      SUNNY     82  66  57 S16       29.82S
GRAND RAPIDS   SUNNY     84  69  60 S15       29.84F
CRANE LAKE     MOSUNNY   81  66  61 S7        29.82S
ORR            SUNNY     84  64  51 SE10G16   29.79S
COOK           MOSUNNY   82  66  57 S10G16    29.83S
WALKER         FAIR      83  68  61 SE12G18   29.78F
$$
MNZ012-019>021-037-232100-
   Northeast Minnesota

CITY           SKY/WX    TMP DP  RH WIND       PRES   REMARKS
DULUTH         MOSUNNY   83  67  58 S20       29.89S
ELY            CLOUDY    82  64  54 S10G16    29.85S
HIBBING        SUNNY     81  66  60 S10G18    29.84S
EVELETH        SUNNY     83  65  55 S12       29.87R
DULUTH HARBOR  SUNNY     88  68  51 S20G25    29.86S HX  91
TWO HARBORS    MOSUNNY   82  70  65 S12       29.87S
SILVER BAY     SUNNY     82  66  57 S12       29.87F
GRAND MARAIS     N/A     73  62  68 S3        29.88F
G MARAIS ARPRT CLOUDY    73  61  64 S8        29.94F
$$
MNZ029>031-032-039>041-046>048-054>057-064-232100-
   West Central Minnesota

CITY           SKY/WX    TMP DP  RH WIND       PRES   REMARKS
FERGUS FALLS     N/A    N/A N/A N/A S21       29.78R
WHEATON        MOSUNNY   86  70  58 S16G24    29.77S HX  90
MORRIS         MOSUNNY   86  70  58 S18       29.79S HX  90
ALEXANDRIA     SUNNY     83  69  62 S23G29    29.84S
ELBOW LAKE     FAIR      82  71  67 S17G24    29.79S HAZE
WADENA         SUNNY     81  68  65 S17       29.80S
GLENWOOD       SUNNY     82  70  65 S18G26    29.85S
APPLETON       CLOUDY    82  70  65 S15G21    29.80S
BENSON         CLOUDY    82  70  65 SW16G22   29.82S
ORTONVILLE     CLOUDY    82  64  54 S17G24    29.79S
MADISON        CLOUDY    81  68  65 S15G22    29.80F
WILLMAR        FAIR      81  72  74 S5        29.86F
$$
MNZ033>034-036-042>043-049>051-058-059-232100-
   Central Minnesota

CITY           SKY/WX    TMP DP  RH WIND       PRES   REMARKS
ST CLOUD       MOSUNNY   82  71  69 S20G29    29.87S
SAUK CENTRE    FAIR      82  69  65 S20       29.85S
PAYNESVILLE    PTSUNNY   80  68  66 S15       29.88S
AITKIN         MOSUNNY   82  64  54 S14G21    29.85S
PINE RIVER     SUNNY     82  70  65 S15G21    29.85F
BRAINERD       MOSUNNY   80  67  64 S14G25    29.85S
STAPLES        SUNNY     82  66  57 S18       29.82S
LONG PRAIRIE   FAIR      81  68  65 SE17G24   29.85S
LITTLE FALLS   SUNNY     82  66  57 S12       29.86S
LITCHFIELD     CLOUDY    81  72  74 SE6       29.88F
BUFFALO        CLOUDY    82  68  63 S13G20    29.89S
MAPLE LAKE     CLOUDY    82  72  72 S6        29.89S
HUTCHINSON     CLOUDY    81  73  76 S8G16     29.89S
$$
MNZ037-044-045-052-053-232100-
   East Central Minnesota

CITY           SKY/WX    TMP DP  RH WIND       PRES   REMARKS
PRINCETON      PTSUNNY   84  70  61 S13       29.88F
MORA           MOSUNNY   81  64  57 S14G21    29.90F
CAMBRIDGE      PTSUNNY   88  70  55 SE14G21   29.87F HX  92
RUSH CITY      MOSUNNY   83  68  60 S12G18    29.90F
MOOSE LAKE     MOSUNNY   82  66  57 S8G16     29.87S
HINCKLEY       FAIR      82  70  65 S13       29.90S
CLOQUET        MOSUNNY   81  64  57 S13G18    29.89S
MCGREGOR       MOSUNNY   81  68  65 SE15      29.87S
$$
MNZ071>073-080-081-089-090-097-098-232100-
   Southwest Minnesota

CITY           SKY/WX    TMP DP  RH WIND       PRES   REMARKS
MONTEVIDEO     PTSUNNY   81  70  69 SW15G24   29.84F VSB 1
GRANITE FALLS  CLOUDY    81  72  76 SE12G18   29.84F
CANBY          CLOUDY    80  68  66 SE13      29.82F
MARSHALL       CLOUDY    78  69  73 S16       29.83F
REDWOOD FALLS  CLOUDY    80  70  71 S15G24    29.85S
OLIVIA         CLOUDY    79  70  73 S10G18    29.85S
PIPESTONE      CLOUDY    72  68  88 S12       29.85F
WINDOM         RAIN      75  70  83 S10       29.89S
WORTHINGTON    TSTM      71  70  96 E14       29.84F FOG
JACKSON        CLOUDY    73  68  83 S8        29.90F
TRACY          CLOUDY    75  71  86 S9G18     29.85F
SLAYTON        CLOUDY    70  68  94 SE13G18   29.85F
$$
MNZ065>067-074>077-082>085-091>093-232100-
   South Central Minnesota

CITY           SKY/WX    TMP DP  RH WIND       PRES   REMARKS
MANKATO        PTSUNNY   81  68  65 S17G28    29.90F
NEW ULM        CLOUDY    79  72  78 S14G20    29.87F
ST JAMES       CLOUDY    75  66  73 SE16G22   29.88F
FAIRMONT         N/A     77  70  79 SE17      29.88
GLENCOE        CLOUDY    83  74  73 S9G22     29.88F
FARIBAULT      CLOUDY    81  70  69 S17G25    29.93F
OWATONNA       CLOUDY    81  66  61 S16G23    29.94S
WASECA         CLOUDY    77  66  69 S13G23    29.94S
ALBERT LEA     CLOUDY    81  66  61 S10G20    29.95F
$$
MNZ078>079-086>088-094>096-232100-
   Southeast Minnesota

CITY           SKY/WX    TMP DP  RH WIND       PRES   REMARKS
ROCHESTER      SUNNY     79  66  64 S17G29    29.99F
RED WING       CLOUDY    84  64  51 S10G20    29.93F
STANTON        CLOUDY    82  68  61 S14G21    29.92F
DODGE CENTER   MOSUNNY   79  64  61 S18G26    29.97F
WINONA         MOSUNNY   81  64  57 S6G17     29.99S
AUSTIN         CLOUDY    79  63  57 S13G22    29.97S
PRESTON        CLOUDY    79  64  60 S18G25    30.01F
$$
ABBREVIATIONS USED IN REMARKS
   TC - TEMPERATURES IN CELSIUS
  WCI - WIND CHILL INDEX
   HX - HEAT INDEX
  VSB - VISIBILITY
$$




USA.gov is the U.S. government's official web portal to all federal, state and local government web resources and services.